Location: Contre
(49.7477°N, 2.0963°E)
Time: 14:46:47
(UTC+00:00)

Envisat - Pass Details

Date: 08 March 2024
Orbit: 762 x 764 km, 98.3° (Epoch: 21 April)

Event Time Altitude Azimuth Distance (km) Brightness Sun altitude
Rises 02:36:20 0° 21° (NNE) 3,243 7.1 -34.5°
Reaches altitude 10° 02:38:52 10° 31° (NNE) 2,311 6.2 -34.2°
Enters shadow 02:43:06 33° 87° (E) 1,278 4.4 -33.7°
